ニート彗星

243P/NEAT (2011)

English version
Home page
Updated on June 11, 2016

---------------------------------------------------------------------

・ プロフィール

符号 243P/2010 P5
検出日 2010年8月15日
検出光度 18.9等
検出者 G. Sostero, E. Guido (RAS Observatory, Mayhill, NM, U.S.A.)

・ 軌道要素

Epoch 2011 Mar. 20.0 TT = JDT 2455640.5
T 2011 Mar. 3.32892 TT                                  MPC
q   2.4561914            (2000.0)            P               Q
n   0.13113541     Peri.  283.92042     +0.97090439     -0.19930138
a   3.8369787      Node    87.70031     +0.23642438     +0.88588326
e   0.3598632      Incl.    7.63495     -0.03805501     +0.41891505
P   7.52
From 307 observations 2003 Aug. 1-2012 Jan. 26, mean residual 0".6.

・ 光度変化

        m1 = 4.2 + 5 logΔ + 30 log r

---------------------------------------------------------------------

軌道要素はM.P.E.C. 2013-B90に掲載されたものです。
光度グラフはComet for Windowsで作成したものです。

---------------------------------------------------------------------

Copyright(C) Seiichi Yoshida (comet@aerith.net). All rights reserved.